Location: �terpigny
(49.8910°N, 2.9249°E)
Time: 19:30:56
(UTC+00:00)

NOSS 3-1 (A) - Pass Details

Date: 24 October 2021
Orbit: 721 x 1491 km, 63.4° (Epoch: 22 November)

Event Time Altitude Azimuth Distance (km) Brightness Sun altitude
Rises 19:38:19 0° 238° (WSW) 3,255 6.8 -29.2°
Reaches altitude 10° 19:40:37 10° 243° (WSW) 2,395 6.1 -29.6°
Maximum altitude 19:46:02 57° 322° (NW) 1,062 3.8 -30.4°
Enters shadow 19:47:26 46° 8° (N) 1,235 4.0 -30.6°
